Time,TemperatureF,DewpointF,PressureIn,WindDirection,WindDirectionDegrees,WindSpeedMPH,WindSpeedGustMPH,Humidity,HourlyPrecipIn,Conditions,Clouds,dailyrainin,SoftwareType,DateUTC
2013-01-17 00:05:00,48.0,48.0,29.94,North,0,0.0,0.0,99,0.03,,,0.20,,2013-01-17 05:05:00,
2013-01-17 00:12:00,48.0,48.0,29.94,North,0,0.0,0.0,99,0.03,,,0.20,,2013-01-17 05:12:00,
2013-01-17 00:22:00,48.0,48.0,29.95,North,0,0.0,3.0,99,0.03,,,0.20,,2013-01-17 05:22:00,
2013-01-17 00:33:00,48.0,48.0,29.95,North,0,0.0,0.0,99,0.04,,,0.21,,2013-01-17 05:33:00,
2013-01-17 00:42:00,48.0,48.0,29.95,North,0,0.0,0.0,99,0.04,,,0.21,,2013-01-17 05:42:00,
2013-01-17 00:52:00,48.0,48.0,29.95,South,182,1.0,3.0,99,0.05,,,0.22,,2013-01-17 05:52:00,
2013-01-17 01:02:00,48.0,48.0,29.94,North,0,0.0,0.0,99,0.02,,,0.22,,2013-01-17 06:02:00,
2013-01-17 01:12:00,48.0,48.0,29.95,North,0,0.0,0.0,99,0.02,,,0.22,,2013-01-17 06:12:00,
2013-01-17 01:22:00,48.0,48.0,29.95,North,0,0.0,0.0,99,0.02,,,0.22,,2013-01-17 06:22:00,
2013-01-17 01:32:00,49.0,49.0,29.95,North,0,0.0,0.0,99,0.03,,,0.24,,2013-01-17 06:32:00,
2013-01-17 01:42:00,49.0,49.0,29.95,North,0,0.0,0.0,99,0.03,,,0.24,,2013-01-17 06:42:00,
2013-01-17 01:52:00,49.0,49.0,29.95,North,0,0.0,0.0,99,0.03,,,0.24,,2013-01-17 06:52:00,
2013-01-17 02:02:00,49.0,49.0,29.95,North,0,0.0,0.0,99,0.04,,,0.25,,2013-01-17 07:02:00,
2013-01-17 02:12:00,49.0,49.0,29.95,North,0,0.0,0.0,99,0.04,,,0.25,,2013-01-17 07:12:00,
2013-01-17 02:22:00,49.0,49.0,29.95,North,0,0.0,0.0,99,0.06,,,0.27,,2013-01-17 07:22:00,
2013-01-17 02:33:00,49.0,49.0,29.94,North,0,0.0,0.0,99,0.09,,,0.32,,2013-01-17 07:33:00,
2013-01-17 02:42:00,49.0,49.0,29.94,North,0,0.0,0.0,99,0.09,,,0.32,,2013-01-17 07:42:00,
2013-01-17 02:52:00,49.0,49.0,29.94,North,0,0.0,0.0,99,0.10,,,0.34,,2013-01-17 07:52:00,
2013-01-17 03:02:00,49.0,49.0,29.94,North,0,0.0,0.0,99,0.10,,,0.35,,2013-01-17 08:02:00,
2013-01-17 03:12:00,49.0,49.0,29.94,North,0,0.0,0.0,99,0.10,,,0.35,,2013-01-17 08:12:00,
2013-01-17 03:22:00,49.0,49.0,29.94,North,0,0.0,0.0,99,0.08,,,0.35,,2013-01-17 08:22:00,
2013-01-17 03:32:00,49.0,49.0,29.94,North,0,0.0,0.0,99,0.07,,,0.37,,2013-01-17 08:32:00,
2013-01-17 03:43:00,49.0,49.0,29.94,North,0,0.0,0.0,99,0.07,,,0.37,,2013-01-17 08:43:00,
2013-01-17 03:52:00,49.0,49.0,29.93,North,0,0.0,0.0,99,0.04,,,0.38,,2013-01-17 08:52:00,
2013-01-17 04:02:00,49.0,49.0,29.93,North,0,0.0,0.0,99,0.05,,,0.39,,2013-01-17 09:02:00,
2013-01-17 04:12:00,49.0,49.0,29.93,North,0,0.0,0.0,99,0.05,,,0.39,,2013-01-17 09:12:00,
2013-01-17 04:22:00,49.0,49.0,29.92,North,0,0.0,0.0,99,0.08,,,0.43,,2013-01-17 09:22:00,
2013-01-17 04:32:00,49.0,49.0,29.93,North,0,0.0,2.0,99,0.12,,,0.50,,2013-01-17 09:32:00,
2013-01-17 04:42:00,49.0,49.0,29.93,North,0,0.0,2.0,99,0.12,,,0.50,,2013-01-17 09:42:00,
2013-01-17 04:53:00,49.0,49.0,29.93,North,0,0.0,4.0,99,0.14,,,0.52,,2013-01-17 09:53:00,
2013-01-17 05:02:00,49.0,49.0,29.94,North,0,0.0,6.0,99,0.20,,,0.59,,2013-01-17 10:02:00,
2013-01-17 05:12:00,49.0,49.0,29.94,North,0,0.0,6.0,99,0.20,,,0.59,,2013-01-17 10:12:00,
2013-01-17 05:22:00,49.0,49.0,29.94,North,0,0.0,2.0,99,0.19,,,0.60,,2013-01-17 10:22:00,
2013-01-17 05:32:00,49.0,49.0,29.95,North,0,0.0,2.0,99,0.19,,,0.62,,2013-01-17 10:32:00,
2013-01-17 05:42:00,49.0,49.0,29.95,North,0,0.0,2.0,99,0.19,,,0.62,,2013-01-17 10:42:00,
2013-01-17 05:52:00,49.0,49.0,29.94,NNE,25,1.0,4.0,99,0.13,,,0.61,,2013-01-17 10:52:00,
2013-01-17 06:02:00,49.0,49.0,29.94,NNE,25,1.0,4.0,99,0.13,,,0.61,,2013-01-17 11:02:00,
2013-01-17 06:12:00,49.0,49.0,29.94,NNE,25,1.0,4.0,99,0.13,,,0.61,,2013-01-17 11:12:00,
2013-01-17 06:22:00,48.0,48.0,29.95,North,0,0.0,4.0,99,0.04,,,0.62,,2013-01-17 11:22:00,
2013-01-17 06:33:00,48.0,48.0,29.95,North,0,0.0,4.0,99,0.02,,,0.63,,2013-01-17 11:33:00,
2013-01-17 06:43:00,48.0,48.0,29.95,North,0,0.0,4.0,99,0.02,,,0.63,,2013-01-17 11:43:00,
2013-01-17 06:53:00,48.0,48.0,29.96,NNE,24,1.0,3.0,99,0.02,,,0.63,,2013-01-17 11:53:00,
2013-01-17 07:02:00,48.0,48.0,29.96,North,0,0.0,3.0,99,0.02,,,0.63,,2013-01-17 12:02:00,
2013-01-17 07:12:00,48.0,48.0,29.96,North,0,0.0,3.0,99,0.02,,,0.63,,2013-01-17 12:12:00,
2013-01-17 07:23:00,48.0,48.0,29.96,North,0,0.0,3.0,99,0.02,,,0.64,,2013-01-17 12:23:00,
2013-01-17 07:33:00,48.0,48.0,29.97,North,0,0.0,2.0,99,0.01,,,0.64,,2013-01-17 12:33:00,
2013-01-17 07:43:00,48.0,48.0,29.97,North,0,0.0,2.0,99,0.01,,,0.64,,2013-01-17 12:43:00,
2013-01-17 07:53:00,48.0,48.0,29.97,North,0,0.0,3.0,99,0.01,,,0.64,,2013-01-17 12:53:00,
2013-01-17 08:03:00,48.0,48.0,29.98,North,0,0.0,3.0,99,0.02,,,0.66,,2013-01-17 13:03:00,
2013-01-17 08:12:00,48.0,48.0,29.98,North,0,0.0,3.0,99,0.02,,,0.66,,2013-01-17 13:12:00,
2013-01-17 08:23:00,48.0,48.0,29.98,NE,40,2.0,7.0,99,0.03,,,0.67,,2013-01-17 13:23:00,
2013-01-17 08:33:00,48.0,48.0,30.00,NE,42,1.0,3.0,99,0.05,,,0.69,,2013-01-17 13:33:00,
2013-01-17 08:43:00,48.0,48.0,30.00,NE,42,1.0,3.0,99,0.05,,,0.69,,2013-01-17 13:43:00,
2013-01-17 08:52:00,48.0,48.0,30.00,NE,42,1.0,3.0,99,0.05,,,0.69,,2013-01-17 13:52:00,
2013-01-17 09:03:00,48.0,48.0,30.00,North,0,0.0,2.0,99,0.06,,,0.72,,2013-01-17 14:03:00,
2013-01-17 09:12:00,48.0,48.0,30.00,North,0,0.0,2.0,99,0.06,,,0.72,,2013-01-17 14:12:00,
2013-01-17 09:23:00,48.0,48.0,30.00,NNE,18,1.0,5.0,99,0.07,,,0.74,,2013-01-17 14:23:00,
2013-01-17 09:33:00,48.0,48.0,30.00,NNE,27,1.0,4.0,99,0.07,,,0.76,,2013-01-17 14:33:00,
2013-01-17 09:43:00,48.0,48.0,30.00,NNE,27,1.0,4.0,99,0.07,,,0.76,,2013-01-17 14:43:00,
2013-01-17 09:53:00,48.0,48.0,30.00,North,0,0.0,3.0,99,0.06,,,0.77,,2013-01-17 14:53:00,
2013-01-17 10:03:00,48.0,48.0,30.00,North,0,0.0,3.0,99,0.06,,,0.78,,2013-01-17 15:03:00,
2013-01-17 10:12:00,48.0,48.0,30.00,North,0,0.0,3.0,99,0.06,,,0.78,,2013-01-17 15:12:00,
2013-01-17 10:23:00,48.0,48.0,30.01,North,0,0.0,3.0,99,0.04,,,0.78,,2013-01-17 15:23:00,
2013-01-17 10:33:00,48.0,48.0,30.01,North,0,0.0,3.0,99,0.07,,,0.83,,2013-01-17 15:33:00,
2013-01-17 10:43:00,48.0,48.0,30.01,North,0,0.0,3.0,99,0.07,,,0.83,,2013-01-17 15:43:00,
2013-01-17 10:53:00,48.0,48.0,30.00,NNE,26,1.0,8.0,99,0.07,,,0.84,,2013-01-17 15:53:00,
2013-01-17 11:02:00,48.0,48.0,29.97,NNE,23,3.0,9.0,99,0.06,,,0.84,,2013-01-17 16:02:00,
2013-01-17 11:12:00,48.0,48.0,29.97,NNE,23,3.0,9.0,99,0.06,,,0.84,,2013-01-17 16:12:00,
2013-01-17 11:23:00,48.0,48.0,29.97,NNE,20,3.0,9.0,99,0.06,,,0.84,,2013-01-17 16:23:00,
2013-01-17 11:33:00,48.0,48.0,29.96,NNE,20,3.0,7.0,99,0.01,,,0.84,,2013-01-17 16:33:00,
2013-01-17 11:43:00,48.0,48.0,29.96,NNE,20,3.0,7.0,99,0.01,,,0.84,,2013-01-17 16:43:00,
2013-01-17 11:53:00,48.0,48.0,29.96,NE,37,1.0,5.0,99,0.00,,,0.83,,2013-01-17 16:53:00,
2013-01-17 12:03:00,48.0,48.0,29.95,North,0,0.0,4.0,99,0.02,,,0.85,,2013-01-17 17:03:00,
2013-01-17 12:13:00,48.0,48.0,29.95,North,0,0.0,4.0,99,0.02,,,0.85,,2013-01-17 17:13:00,
2013-01-17 12:23:00,48.0,48.0,29.94,North,0,0.0,1.0,99,0.03,,,0.85,,2013-01-17 17:23:00,
2013-01-17 12:33:00,48.0,48.0,29.93,North,0,0.0,4.0,99,0.05,,,0.85,,2013-01-17 17:33:00,
2013-01-17 12:43:00,48.0,48.0,29.93,North,0,0.0,4.0,99,0.05,,,0.85,,2013-01-17 17:43:00,
2013-01-17 12:53:00,48.0,48.0,29.92,North,0,0.0,5.0,99,0.05,,,0.85,,2013-01-17 17:53:00,
2013-01-17 13:04:00,48.0,48.0,29.92,North,0,0.0,5.0,99,0.04,,,0.82,,2013-01-17 18:04:00,
2013-01-17 13:12:00,48.0,48.0,29.92,North,0,0.0,5.0,99,0.04,,,0.82,,2013-01-17 18:12:00,
2013-01-17 13:22:00,48.0,48.0,29.92,North,0,0.0,3.0,99,0.04,,,0.82,,2013-01-17 18:22:00,
2013-01-17 13:33:00,48.0,48.0,29.90,NNE,22,1.0,5.0,99,0.05,,,0.84,,2013-01-17 18:33:00,
2013-01-17 13:43:00,48.0,48.0,29.90,NNE,22,1.0,5.0,99,0.05,,,0.84,,2013-01-17 18:43:00,
2013-01-17 13:53:00,48.0,48.0,29.89,North,0,0.0,5.0,99,0.05,,,0.84,,2013-01-17 18:53:00,
2013-01-17 14:03:00,48.0,48.0,29.89,NNE,17,2.0,9.0,99,0.05,,,0.85,,2013-01-17 19:03:00,
2013-01-17 14:13:00,48.0,48.0,29.89,NNE,17,2.0,9.0,99,0.05,,,0.85,,2013-01-17 19:13:00,
2013-01-17 14:23:00,47.0,47.0,29.88,North,0,0.0,9.0,99,0.04,,,0.85,,2013-01-17 19:23:00,
2013-01-17 14:33:00,47.0,46.0,29.87,North,360,1.0,4.0,98,0.02,,,0.85,,2013-01-17 19:33:00,
2013-01-17 14:43:00,47.0,46.0,29.87,North,360,1.0,4.0,98,0.02,,,0.85,,2013-01-17 19:43:00,
2013-01-17 14:53:00,47.0,46.0,29.86,North,0,0.0,5.0,98,0.01,,,0.85,,2013-01-17 19:53:00,
2013-01-17 15:03:00,47.0,47.0,29.86,NNE,15,2.0,11.0,99,0.00,,,0.85,,2013-01-17 20:03:00,
2013-01-17 15:12:00,47.0,47.0,29.86,NNE,15,2.0,11.0,99,0.00,,,0.85,,2013-01-17 20:12:00,
2013-01-17 15:23:00,47.0,47.0,29.86,North,8,2.0,7.0,99,0.01,,,0.86,,2013-01-17 20:23:00,
2013-01-17 15:33:00,47.0,47.0,29.85,North,0,0.0,6.0,99,0.02,,,0.87,,2013-01-17 20:33:00,
2013-01-17 15:43:00,47.0,47.0,29.85,North,0,0.0,6.0,99,0.02,,,0.87,,2013-01-17 20:43:00,
2013-01-17 15:53:00,47.0,46.0,29.86,North,0,0.0,9.0,98,0.03,,,0.88,,2013-01-17 20:53:00,
2013-01-17 16:03:00,46.0,45.0,29.87,North,6,2.0,13.0,98,0.03,,,0.88,,2013-01-17 21:03:00,
2013-01-17 16:13:00,46.0,45.0,29.87,North,6,2.0,13.0,98,0.03,,,0.88,,2013-01-17 21:13:00,
2013-01-17 16:23:00,46.0,45.0,29.87,North,0,0.0,6.0,98,0.02,,,0.88,,2013-01-17 21:23:00,
2013-01-17 16:34:00,46.0,45.0,29.87,North,0,0.0,6.0,98,0.02,,,0.88,,2013-01-17 21:34:00,
2013-01-17 16:43:00,46.0,45.0,29.87,North,0,0.0,6.0,98,0.02,,,0.88,,2013-01-17 21:43:00,
2013-01-17 16:52:00,45.0,44.0,29.85,North,0,0.0,6.0,98,0.01,,,0.89,,2013-01-17 21:52:00,
2013-01-17 17:03:00,45.0,44.0,29.85,NNE,13,2.0,11.0,98,0.02,,,0.90,,2013-01-17 22:03:00,
2013-01-17 17:12:00,45.0,44.0,29.85,NNE,13,2.0,11.0,98,0.02,,,0.90,,2013-01-17 22:12:00,
2013-01-17 17:23:00,45.0,44.0,29.85,NNE,13,2.0,11.0,98,0.02,,,0.90,,2013-01-17 22:23:00,
2013-01-17 17:33:00,45.0,44.0,29.85,NNE,13,2.0,11.0,98,0.02,,,0.90,,2013-01-17 22:33:00,
2013-01-17 17:43:00,45.0,44.0,29.85,NNE,13,2.0,11.0,98,0.02,,,0.90,,2013-01-17 22:43:00,
2013-01-17 17:52:00,44.0,43.0,29.89,NE,36,2.0,13.0,98,0.05,,,0.94,,2013-01-17 22:52:00,
2013-01-17 18:03:00,43.0,42.0,29.91,North,5,2.0,17.0,98,0.11,,,1.01,,2013-01-17 23:03:00,
2013-01-17 18:12:00,43.0,42.0,29.91,North,5,2.0,17.0,98,0.11,,,1.01,,2013-01-17 23:12:00,
2013-01-17 18:23:00,43.0,42.0,29.91,North,5,2.0,17.0,98,0.11,,,1.01,,2013-01-17 23:23:00,
2013-01-17 18:33:00,42.0,41.0,29.91,North,355,2.0,5.0,98,0.14,,,1.07,,2013-01-17 23:33:00,
2013-01-17 18:43:00,42.0,41.0,29.91,North,355,2.0,5.0,98,0.14,,,1.07,,2013-01-17 23:43:00,
2013-01-17 18:53:00,42.0,41.0,29.88,NNE,19,6.0,18.0,98,0.15,,,1.09,,2013-01-17 23:53:00,
2013-01-17 19:03:00,42.0,41.0,29.91,NNE,16,4.0,13.0,98,0.11,,,1.12,,2013-01-18 00:03:00,
2013-01-17 19:12:00,42.0,41.0,29.91,NNE,16,4.0,13.0,98,0.11,,,1.12,,2013-01-18 00:12:00,
2013-01-17 19:23:00,41.0,40.0,29.91,North,10,3.0,20.0,97,0.11,,,1.15,,2013-01-18 00:23:00,
2013-01-17 19:32:00,41.0,40.0,29.91,North,10,3.0,20.0,97,0.11,,,1.15,,2013-01-18 00:32:00,
2013-01-17 19:42:00,40.0,39.0,29.89,NNE,15,6.0,18.0,97,0.12,,,1.19,,2013-01-18 00:42:00,
2013-01-17 19:52:00,40.0,39.0,29.89,North,360,2.0,17.0,97,0.12,,,1.21,,2013-01-18 00:52:00,
2013-01-17 20:03:00,39.0,38.0,29.91,SE,138,4.0,12.0,97,0.11,,,1.23,,2013-01-18 01:03:00,
2013-01-17 20:12:00,39.0,38.0,29.91,SE,138,4.0,12.0,97,0.11,,,1.23,,2013-01-18 01:12:00,
2013-01-17 20:23:00,38.0,37.0,29.93,North,5,2.0,13.0,96,0.09,,,1.24,,2013-01-18 01:23:00,
2013-01-17 20:33:00,35.0,34.0,29.99,North,0,0.0,4.0,95,0.06,,,1.25,,2013-01-18 01:33:00,
2013-01-17 20:43:00,35.0,34.0,29.99,North,0,0.0,4.0,95,0.06,,,1.25,,2013-01-18 01:43:00,
2013-01-17 20:52:00,34.0,33.0,30.01,North,0,0.0,2.0,95,0.05,,,1.26,,2013-01-18 01:52:00,
2013-01-17 21:03:00,33.0,32.0,29.97,NNE,22,1.0,4.0,95,0.03,,,1.25,,2013-01-18 02:03:00,
2013-01-17 21:12:00,33.0,32.0,29.97,NNE,22,1.0,4.0,95,0.03,,,1.25,,2013-01-18 02:12:00,
2013-01-17 21:22:00,33.0,32.0,29.99,North,0,0.0,2.0,95,0.03,,,1.26,,2013-01-18 02:22:00,
2013-01-17 21:33:00,32.0,31.0,30.01,North,0,0.0,3.0,95,0.02,,,1.26,,2013-01-18 02:33:00,
2013-01-17 21:42:00,32.0,31.0,30.01,North,0,0.0,3.0,95,0.02,,,1.26,,2013-01-18 02:42:00,
2013-01-17 21:52:00,32.0,31.0,30.00,North,0,0.0,2.0,96,0.01,,,1.26,,2013-01-18 02:52:00,
2013-01-17 22:02:00,32.0,31.0,29.98,North,0,0.0,4.0,96,0.01,,,1.26,,2013-01-18 03:02:00,
2013-01-17 22:12:00,32.0,31.0,29.98,North,0,0.0,4.0,96,0.01,,,1.26,,2013-01-18 03:12:00,
2013-01-17 22:23:00,32.0,31.0,29.98,North,0,0.0,2.0,96,0.01,,,1.27,,2013-01-18 03:23:00,
2013-01-17 22:33:00,32.0,31.0,30.01,North,0,0.0,2.0,96,0.01,,,1.27,,2013-01-18 03:33:00,
2013-01-17 22:42:00,32.0,31.0,30.01,North,0,0.0,2.0,96,0.01,,,1.27,,2013-01-18 03:42:00,
2013-01-17 22:52:00,32.0,31.0,30.03,North,0,0.0,4.0,96,0.01,,,1.27,,2013-01-18 03:52:00,
2013-01-17 23:02:00,32.0,31.0,30.05,North,0,0.0,3.0,96,0.02,,,1.27,,2013-01-18 04:02:00,
2013-01-17 23:12:00,32.0,31.0,30.05,North,0,0.0,3.0,96,0.02,,,1.27,,2013-01-18 04:12:00,
2013-01-17 23:22:00,32.0,31.0,30.07,North,0,0.0,0.0,96,0.01,,,1.27,,2013-01-18 04:22:00,
2013-01-17 23:33:00,32.0,31.0,30.10,North,0,0.0,1.0,96,0.02,,,1.28,,2013-01-18 04:33:00,
2013-01-17 23:42:00,32.0,31.0,30.10,North,0,0.0,1.0,96,0.02,,,1.28,,2013-01-18 04:42:00,
2013-01-17 23:52:00,32.0,31.0,30.12,North,0,0.0,0.0,96,0.02,,,1.28,,2013-01-18 04:52:00,